This is the latest recevied weather packets stored in our database for station/object F4NFR-13. If no packets are shown the sender has not sent any weather packets the latest 1 day(s).
| Time | Temp. | Humidity | Pressure | Rain* | Wind** | Luminosity | Snow |
|---|---|---|---|---|---|---|---|
| 1777957544 | 10° C | 90% | 1013.4 hPa | 0 mm | 3.13 m/s, 49° | 22 W/m² | - |
| 1777957241 | 10° C | 90% | 1013.4 hPa | 0 mm | 3.13 m/s, 12° | 17 W/m² | - |
| 1777956636 | 10° C | 90% | 1013.4 hPa | 0 mm | 4.92 m/s, 31° | 15 W/m² | - |
| 1777956333 | 10° C | 90% | 1013.7 hPa | 0 mm | 4.02 m/s, 29° | 9 W/m² | - |
| 1777956031 | 10° C | 90% | 1013.7 hPa | 0 mm | 2.68 m/s, 66° | 7 W/m² | - |
| 1777955728 | 10° C | 90% | 1014 hPa | 0 mm | 3.13 m/s, 41° | 5 W/m² | - |
| 1777955426 | 10° C | 91% | 1014 hPa | 0 mm | 3.13 m/s, 37° | 3 W/m² | - |
| 1777955124 | 10° C | 91% | 1014 hPa | 0 mm | 2.68 m/s, 49° | 2 W/m² | - |
| 1777954821 | 10° C | 91% | 1014 hPa | 0 mm | 1.79 m/s, 330° | 1 W/m² | - |
| 1777954519 | 10° C | 91% | 1014 hPa | 0 mm | 3.58 m/s, 70° | 1 W/m² | - |
| 1777953914 | 10° C | 91% | 1014 hPa | 0 mm | 4.47 m/s, 77° | 0 W/m² | - |
| 1777953612 | 10° C | 91% | 1014 hPa | 0 mm | 2.68 m/s, 58° | 0 W/m² | - |
| 1777953310 | 10° C | 91% | 1014 hPa | 0 mm | 2.24 m/s, 62° | 0 W/m² | - |
| 1777953007 | 10° C | 91% | 1014 hPa | 0 mm | 3.13 m/s, 87° | 0 W/m² | - |
| 1777952705 | 10° C | 91% | 1014 hPa | 0 mm | 1.79 m/s, 88° | 0 W/m² | - |
| 1777952403 | 10° C | 91% | 1014 hPa | 0 mm | 3.13 m/s, 64° | 0 W/m² | - |
| 1777952101 | 10° C | 91% | 1014.4 hPa | 0 mm | 3.13 m/s, 20° | 0 W/m² | - |
| 1777951496 | 10° C | 91% | 1014 hPa | 0 mm | 5.36 m/s, 41° | 0 W/m² | - |
| 1777951194 | 10° C | 91% | 1014.4 hPa | 0 mm | 3.58 m/s, 43° | 0 W/m² | - |
| 1777950891 | 10° C | 91% | 1014.4 hPa | 0 mm | 5.81 m/s, 44° | 0 W/m² | - |
| 1777950588 | 10° C | 91% | 1014.4 hPa | 0 mm | 4.92 m/s, 34° | 0 W/m² | - |
| 1777950286 | 10° C | 91% | 1014.4 hPa | 0 mm | 4.92 m/s, 43° | 0 W/m² | - |
| 1777949984 | 10° C | 90% | 1014.4 hPa | 0 mm | 3.58 m/s, 22° | 0 W/m² | - |
| 1777949681 | 10° C | 91% | 1014.7 hPa | 0 mm | 2.24 m/s, 21° | 0 W/m² | - |
| 1777949379 | 10° C | 91% | 1014.7 hPa | 0 mm | 4.92 m/s, 16° | 0 W/m² | - |
* Rain latest hour (hover to see other rain measurements)
** Current wind speed in m/s (hover to see current wind gust speed)